Weather History for Mobile, AL

Change the Weather History Date:

Tuesday, February 26, 2013

  Actual Average Record
Temperature  
Mean Temperature 56 °F 56 °F  
Max Temperature 64 °F 67 °F 81 °F (1972)
Min Temperature 48 °F 46 °F 25 °F (1974)
Degree Days  
Heating Degree Days 9 9  
Month to date heating degree days 238 304  
Since 1 July heating degree days 1149 1425  
Cooling Degree Days 0 0  
Month to date cooling degree days 1 0  
Year to date cooling degree days 27 7  
Growing Degree Days 6 (Base 50)    
Moisture  
Dew Point 41 °F    
Average Humidity 68    
Maximum Humidity 93    
Minimum Humidity 42    
Precipitation  
Precipitation 0.00 in 0.18 in 2.32 in (1929)
Month to date precipitation 11.32 4.75  
Year to date precipitation 14.19 10.40  
Snow  
Snow 0.00 in 0.00 in - ()
Month to date snowfall 0.0 0.1  
Since 1 July snowfall 0.0 0.1  
Snow Depth 0.00 in    
Sea Level Pressure  
Sea Level Pressure 29.73 in    
Wind  
Wind Speed 9 mph (WSW)    
Max Wind Speed 18 mph    
Max Gust Speed 25 mph    
Visibility 10 miles    
Events      
T = Trace of Precipitation, MM = Missing Value Source: NWS Daily Summary

Daily Weather History Graph

Daily Weather History Graph

Search for Another Location

Airport:

Trip Planner

Search our weather history database for the weather conditions in past years. The results will help you decide how hot, cold, wet, or windy it might be!

Date:

Astronomy

Feb. 26, 2013 Rise Set
Actual Time 6:22 AM CST 5:49 PM CST
Civil Twilight 5:58 AM CST 6:13 PM CST
Nautical Twilight 5:30 AM CST 6:41 PM CST
Astronomical Twilight 5:02 AM CST 7:09 PM CST
Moon 6:56 PM CST (2/26) 6:31 AM CST (2/26)
Length of Visible Light 12h 15m
Length of Day
11h 27m
Full, 99% of the Moon is Illuminated
Feb 26
Full
Mar 4
Last Quarter
Mar 11
New
Mar 19
First Quarter
Mar 27
Full

Hourly Weather History & Observations

Time (CST) Temp. Dew Point Humidity Pressure Visibility Wind Dir Wind Speed Gust Speed Precip Events Conditions
12:15 AM 64.4 °F 60.8 °F 88% 29.54 in 10.0 mi SW 13.8 mph - N/A   Overcast
12:56 AM 63.0 °F 57.0 °F 81% 29.55 in 10.0 mi WSW 9.2 mph - N/A   Mostly Cloudy
1:56 AM 59.0 °F 53.1 °F 81% 29.55 in 10.0 mi SW 9.2 mph - N/A   Clear
2:56 AM 57.0 °F 48.9 °F 74% 29.56 in 10.0 mi WSW 6.9 mph - N/A   Clear
3:56 AM 55.9 °F 46.0 °F 69% 29.57 in 10.0 mi West 6.9 mph - N/A   Clear
4:56 AM 53.1 °F 44.1 °F 71% 29.60 in 10.0 mi WSW 5.8 mph - N/A   Clear
5:56 AM 50.0 °F 37.0 °F 61% 29.63 in 10.0 mi West 6.9 mph - N/A   Scattered Clouds
6:56 AM 48.9 °F 37.0 °F 64% 29.67 in 10.0 mi West 9.2 mph - N/A   Scattered Clouds
7:56 AM 50.0 °F 37.0 °F 61% 29.71 in 10.0 mi West 12.7 mph 20.7 mph N/A   Partly Cloudy
8:56 AM 50.0 °F 34.0 °F 54% 29.72 in 10.0 mi West 15.0 mph 25.3 mph N/A   Scattered Clouds
9:56 AM 52.0 °F 35.1 °F 53% 29.74 in 10.0 mi West 12.7 mph 20.7 mph N/A   Scattered Clouds
10:56 AM 55.0 °F 37.0 °F 51% 29.76 in 10.0 mi WSW 13.8 mph 19.6 mph N/A   Scattered Clouds
11:56 AM 57.0 °F 37.0 °F 47% 29.75 in 10.0 mi WSW 11.5 mph 18.4 mph N/A   Partly Cloudy
12:56 PM 59.0 °F 37.9 °F 46% 29.73 in 10.0 mi WNW 12.7 mph 18.4 mph N/A   Partly Cloudy
1:56 PM 60.1 °F 37.0 °F 42% 29.72 in 10.0 mi West 13.8 mph 19.6 mph N/A   Scattered Clouds
2:56 PM 61.0 °F 37.9 °F 42% 29.72 in 10.0 mi West 10.4 mph 16.1 mph N/A   Scattered Clouds
3:56 PM 61.0 °F 37.0 °F 41% 29.73 in 10.0 mi West 11.5 mph 17.3 mph N/A   Mostly Cloudy
4:56 PM 55.9 °F 41.0 °F 57% 29.77 in 10.0 mi SW 13.8 mph - N/A   Mostly Cloudy
5:56 PM 53.1 °F 41.0 °F 64% 29.80 in 10.0 mi SW 9.2 mph - N/A   Mostly Cloudy
6:56 PM 51.1 °F 42.1 °F 71% 29.84 in 10.0 mi SSW 6.9 mph - N/A   Scattered Clouds
7:56 PM 51.1 °F 42.1 °F 71% 29.87 in 10.0 mi SW 4.6 mph - N/A   Mostly Cloudy
8:56 PM 51.1 °F 41.0 °F 68% 29.89 in 10.0 mi West 3.5 mph - N/A   Mostly Cloudy
9:56 PM 50.0 °F 41.0 °F 71% 29.92 in 10.0 mi West 3.5 mph - N/A   Mostly Cloudy
10:56 PM 48.9 °F 41.0 °F 74% 29.92 in 10.0 mi WSW 3.5 mph - N/A   Mostly Cloudy
11:56 PM 48.9 °F 41.0 °F 74% 29.93 in 10.0 mi SW 3.5 mph - N/A   Clear